Home   Weather   Dundalk   Past weeks

Flag for Ireland Past Weather in Dundalk, Ireland — Yesterday and Last 2 Weeks

Now
48 °F

Light rain. Overcast.


Feels Like: 48 °F
Forecast: 46 / 58 °F
Wind: 2 mph from Southeast

Location: Glenanne

Current Time: Apr 30, 2017 at 11:55:12 pm

Latest Report: Apr 30, 2017 at 11:00 pm


Visibility: 7 mi

Pressure: 29.50 "Hg

Humidity: 89%

Dew Point: 45 °F

Location of DundalkLocation

Past Weather in Dundalk — Graph

°F

Dundalk Temperature Yesterday

Maximum temperature yesterday: 50 °F (at 12:00 pm)
Minimum temperature yesterday: 42 °F (at 5:00 am)
Average temperature yesterday: 46 °F

High & Low Weather Summary for the Past Weeks

 TemperatureHumidityPressure
High56 °F (Apr 30, 4:00 pm)100% (Apr 22, 8:00 pm)30.59 "Hg (Apr 22, 8:00 pm)
Low33 °F (Apr 26, 5:00 am)51% (Apr 24, 4:00 pm)29.44 "Hg (Apr 30, 8:00 am)
Average46 °F83%30.20 "Hg
* Reported Apr 15 10:00 pm — Apr 30 10:00 pm, Dundalk, Weather by CustomWeather, © 2017

Note: Actual official high and low records may vary slightly from our data, if they occured in-between our weather recording intervals... More about our weather records

Advertising

Dundalk Weather History for the Previous 24 Hours

Scroll right to see more
 ConditionsComfort  
Time TempWeatherWind HumidityBarometerVisibility
10:00 pm
Sun, Apr 30
49 °FCool.2 mph85%29.50 "Hg10 mi
9:00 pm49 °FCool.5 mph86%29.47 "Hg9 mi
8:00 pm49 °FLight rain. Cloudy.7 mph85%29.47 "Hg7 mi
7:00 pm52 °FRain showers. Cloudy.14 mph69%29.44 "Hg15 mi
6:00 pm53 °FCool.14 mph67%29.44 "Hg14 mi
5:00 pm54 °FCool.15 mph64%29.44 "Hg13 mi
4:00 pm56 °FCool.23 mph61%29.44 "Hg13 mi
3:00 pm54 °FCool.26 mph62%29.44 "Hg14 mi
2:00 pm53 °FCool.23 mph67%29.44 "Hg11 mi
1:00 pm52 °FCool.22 mph66%29.44 "Hg11 mi
12:00 pm53 °FCool.22 mph71%29.44 "Hg13 mi
11:00 am51 °FCool.22 mph71%29.44 "Hg11 mi
10:00 am49 °FCool.20 mph78%29.47 "Hg8 mi
9:00 am50 °FCool.22 mph75%29.44 "Hg11 mi
8:00 am49 °FCool.23 mph75%29.44 "Hg11 mi
7:00 am49 °FCool.18 mph75%29.47 "Hg15 mi
6:00 am48 °FCool.16 mph76%29.47 "Hg12 mi
5:00 am48 °FRain showers. Overcast.17 mph78%29.50 "Hg12 mi
4:00 am47 °FCool.10 mph79%29.53 "Hg16 mi
3:00 am48 °FCool.13 mph76%29.55 "Hg19 mi
2:00 am48 °FCool.15 mph75%29.58 "Hg19 mi
1:00 am47 °FCool.20 mph77%29.61 "Hg19 mi
12:00 am48 °FCool.16 mph80%29.63 "Hg28 mi
11:00 pm
Sat, Apr 29
48 °FCool.15 mph79%29.65 "Hg19 mi
Weather by CustomWeather, © 2017

See weather overviewHow to use our weather pages